YBHM

Details ICAO YBHM (HTI)
Name Hamilton I.
Region Australia
Timezone Australia/Lindeman (UTC+10.0)
Plans Departing 64
Arriving 121
Stats Elevation 14 ft / 4 m (AMSL)
Location -20.357481° 148.951639°
Runways 1
Magnetic Variation 8.150° E
Sunrise 2018-05-23 20:30:47 UTC / 2018-05-24 06:30:47 Local
Sunset 2018-05-24 07:34:04 UTC / 2018-05-24 17:34:04 Local
Advertisement - Login to hide

Runways

ID Width Length Bearing (true) Bearing (mag) Surface Threshold Offset Overrun Length
14 148 ft / 45 m 5,792 ft / 1,765 m 143.04° 134.89° Asphalt 0 ft / 0 m 0 ft / 0 m
32 148 ft / 45 m 5,792 ft / 1,765 m 323.03° 314.88° Asphalt 0 ft / 0 m 0 ft / 0 m

Map

Weather


0- 5 10 15 20 25 30 35+ Temperature / ° C

Clouds and Precipitation
Forecast for 2018-05-24 00:00 UTC. Updated an hour ago

Ground ~20,000 ft ~40,000 ft Winds

METAR

YBHM 240030Z AUTO 15020KT 9999 // BKN037 BKN054 21/19 Q1019

TAF

Not found

Frequencies

Unicom 126.70 MHz WHITSUNDAY MULT
Tower 118.70 MHz HAMILTON IS TWR
Tower 135.50 MHz BRISBANE CNTR
Warning: Do not use this data for real-world aviation or navigation. No guarantee of current accuracy is given.